Weather in Znamenka

Russia / Amur Oblast     50°37′21″N   129°03′17″E
temp.,
°C
wind,
m/s
gust,
m/s
humid.,
%
clouds,
%
prec.,
mm/h
press.,
hPa
HPBL,
m
28 september, tue
tue2800:00+10sw410761 0.0 1012159
03:00+9wsw33790 0.0 101329
06:00+8s22765 0.0 101215
09:00+12sse57715 0.0 1012259
12:00+17sse7116082 0.0 1009841
15:00+17s71265100 0.0 10061193
18:00+16s71662100 0.0 1004659
21:00+15s9176397 0.1 1002749
29 september, wed
wed2900:00+13s81778100 0.4 1001619
03:00+13ssw51193100 1.6 1001598
06:00+8nw4694100 2.9 1004377
09:00+7nnw4687100 6.8 1005434
12:00+11nnw456690 0.0 1006951
15:00+12nnw3455100 0.0 10061219
18:00+10n116584 0.0 100710
21:00+8se227072 0.0 100721
30 september, thu
thu3000:00+8s3573100 0.0 1006149
03:00+6sw377361 0.0 1005133
06:00+4sw497816 0.0 1005208
09:00+6wsw710631 0.0 1005567
12:00+9wsw795513 0.0 10041679
15:00+10w7105681 0.4 10041637
18:00+7w3469100 0.4 100695
21:00+5sw3873100 0.4 1006188
1 october, fri
fri100:00+3sw497916 0.0 1006178
03:00+2wsw34845 0.0 100771
06:00+2wsw228980 0.0 100837
09:00+5wsw34725 0.0 1009350
12:00+9wsw45555 0.0 10081429
15:00+10sw464775 0.1 10081731
18:00+7ssw226389 0.1 100827
21:00+5wsw346886 0.1 101072
2 october, sat
sat200:00+4w22796 0.0 101128
03:00+3nw118723 0.0 101210
06:00+2e228953 0.0 101310
09:00+6ese22736 0.0 1014245
12:00+10ssw236027 0.0 10141046
15:00+10wsw345687 0.3 10131243
18:00+7nw117185 0.1 101410
21:00+7ssw2275100 0.2 101547